| time (UTC) | temp C | wind direction | speed KPH | gust KPH | rain 1hr cm | rain 24hr cm | rain mn cm | humidity % | barometer mb |
| 20260505153028 | 13 | 261 | 1.6 | 11.3 | 0.00 | 0.00 | 0.00 | 78 | 1017.6 |
| 20260505151530 | 13 | 256 | 1.6 | 9.7 | 0.00 | 0.00 | 0.00 | 79 | 1017.6 |
| 20260505124605 | 12 | 247 | 1.6 | 9.7 | 0.00 | 0.00 | 0.00 | 85 | 1016.6 |
| 20260505123027 | 12 | 249 | 1.6 | 11.3 | 0.00 | 0.00 | 0.00 | 84 | 1016.6 |
| 20260505121533 | 12 | 241 | 1.6 | 11.3 | 0.00 | 0.00 | 0.00 | 83 | 1016.5 |
| 20260505120030 | 12 | 232 | 1.6 | 9.7 | 0.00 | 0.00 | 0.00 | 83 | 1016.4 |
| 20260505113034 | 12 | 235 | 1.6 | 8.0 | 0.00 | 0.00 | 0.00 | 83 | 1016.4 |
| 20260505111531 | 12 | 236 | 1.6 | 11.3 | 0.00 | 0.00 | 0.00 | 82 | 1016.3 |
| 20260505101529 | 13 | 240 | 1.6 | 9.7 | 0.00 | 0.00 | 0.00 | 82 | 1015.9 |
| 20260505094531 | 13 | 239 | 1.6 | 9.7 | 0.00 | 0.00 | 0.00 | 81 | 1015.6 |
| 20260505093030 | 13 | 223 | 1.6 | 8.0 | 0.00 | 0.00 | 0.00 | 80 | 1015.5 |
| 20260505091608 | 14 | 241 | 1.6 | 11.3 | 0.00 | 0.00 | 0.00 | 78 | 1015.4 |
| 20260505084532 | 15 | 238 | 1.6 | 11.3 | 0.00 | 0.00 | 0.00 | 77 | 1015.2 |
| 20260505083030 | 15 | 246 | 1.6 | 9.7 | 0.00 | 0.00 | 0.00 | 77 | 1015.2 |
| 20260505081530 | 15 | 240 | 1.6 | 9.7 | 0.00 | 0.00 | 0.00 | 77 | 1015.1 |
| 20260505080027 | 15 | 239 | 1.6 | 8.0 | 0.00 | 0.00 | 0.00 | 77 | 1015.0 |
| 20260505074530 | 16 | 250 | 0.0 | 8.0 | 0.00 | 0.00 | 0.00 | 77 | 1015.0 |
| 20260505073027 | 16 | 250 | 0.0 | 9.7 | 0.00 | 0.00 | 0.00 | 77 | 1014.8 |
| 20260505071532 | 16 | 248 | 1.6 | 8.0 | 0.00 | 0.00 | 0.00 | 75 | 1014.7 |
| 20260505070030 | 16 | 257 | 0.0 | 6.4 | 0.00 | 0.00 | 0.00 | 73 | 1014.7 |
| 20260505064533 | 17 | 237 | 1.6 | 9.7 | 0.00 | 0.00 | 0.00 | 72 | 1014.5 |
| 20260505061532 | 17 | 261 | 0.0 | 8.0 | 0.00 | 0.00 | 0.00 | 69 | 1014.4 |
| 20260505060031 | 17 | 245 | 0.0 | 6.4 | 0.00 | 0.00 | 0.00 | 69 | 1014.4 |
| 20260505054532 | 17 | 226 | 1.6 | 8.0 | 0.00 | 0.00 | 0.00 | 68 | 1014.3 |
| 20260505053033 | 18 | 243 | 0.0 | 8.0 | 0.00 | 0.00 | 0.00 | 66 | 1014.2 |
| 20260505041530 | 19 | 230 | 1.6 | 12.9 | 0.00 | 0.00 | 0.00 | 59 | 1013.4 |
| 20260505040044 | 19 | 250 | 0.0 | 6.4 | 0.00 | 0.00 | 0.00 | 58 | 1013.2 |
| 20260505034528 | 19 | 229 | 1.6 | 8.0 | 0.00 | 0.00 | 0.00 | 57 | 1012.9 |
| 20260505033031 | 20 | 259 | 0.0 | 12.9 | 0.00 | 0.00 | 0.00 | 57 | 1012.7 |
| 20260505031528 | 20 | 227 | 1.6 | 9.7 | 0.00 | 0.00 | 0.00 | 56 | 1012.6 |
| 20260505023031 | 20 | 249 | 1.6 | 11.3 | 0.00 | 0.00 | 0.00 | 56 | 1012.1 |
| 20260505021531 | 21 | 252 | 1.6 | 11.3 | 0.00 | 0.00 | 0.00 | 55 | 1011.9 |
| 20260505020030 | 21 | 256 | 1.6 | 11.3 | 0.00 | 0.00 | 0.00 | 54 | 1011.8 |
| 20260505014607 | 22 | 267 | 1.6 | 16.1 | 0.00 | 0.00 | 0.00 | 53 | 1011.7 |
| 20260505013147 | 22 | 265 | 0.0 | 11.3 | 0.00 | 0.00 | 0.00 | 53 | 1011.7 |
| 20260505011608 | 22 | 267 | 1.6 | 14.5 | 0.00 | 0.00 | 0.00 | 53 | 1011.7 |
| 20260505010144 | 22 | 272 | 0.0 | 6.4 | 0.00 | 0.00 | 0.00 | 52 | 1011.8 |
| 20260505004529 | 23 | 261 | 0.0 | 11.3 | 0.00 | 0.00 | 0.00 | 50 | 1011.9 |
| 20260505003031 | 23 | 264 | 1.6 | 9.7 | 0.00 | 0.00 | 0.00 | 49 | 1011.9 |
| 20260505001531 | 23 | 276 | 0.0 | 9.7 | 0.00 | 0.00 | 0.00 | 48 | 1011.8 |
| 20260505000032 | 24 | 272 | 0.0 | 11.3 | 0.00 | 0.00 | 0.00 | 48 | 1011.9 |
| 20260504234528 | 24 | 273 | 0.0 | 8.0 | 0.00 | 0.00 | 0.00 | 47 | 1011.7 |
| 20260504233031 | 24 | 269 | 1.6 | 9.7 | 0.00 | 0.00 | 0.00 | 47 | 1011.6 |
| 20260504230031 | 24 | 275 | 0.0 | 9.7 | 0.00 | 0.00 | 0.00 | 47 | 1011.9 |
| 20260504224531 | 24 | 277 | 0.0 | 11.3 | 0.00 | 0.00 | 0.00 | 48 | 1012.0 |
| 20260504220030 | 23 | 278 | 0.0 | 16.1 | 0.00 | 0.00 | 0.00 | 48 | 1012.3 |
| 20260504213031 | 23 | 275 | 1.6 | 11.3 | 0.00 | 0.00 | 0.00 | 48 | 1012.6 |
| 20260504211533 | 23 | 271 | 1.6 | 14.5 | 0.00 | 0.00 | 0.00 | 48 | 1012.6 |
| 20260504210107 | 23 | 268 | 1.6 | 14.5 | 0.00 | 0.00 | 0.00 | 48 | 1012.7 |
| 20260504204531 | 23 | 278 | 0.0 | 9.7 | 0.00 | 0.00 | 0.00 | 47 | 1012.8 |
| 20260504203105 | 24 | 276 | 0.0 | 8.0 | 0.00 | 0.00 | 0.00 | 46 | 1012.9 |
| 20260504201530 | 24 | 282 | 0.0 | 11.3 | 0.00 | 0.00 | 0.00 | 46 | 1012.9 |
| 20260504200032 | 23 | 272 | 0.0 | 9.7 | 0.00 | 0.00 | 0.00 | 47 | 1013.1 |
| 20260504194530 | 23 | 277 | 1.6 | 9.7 | 0.00 | 0.00 | 0.00 | 49 | 1013.2 |
| 20260504193032 | 23 | 274 | 1.6 | 11.3 | 0.00 | 0.00 | 0.00 | 50 | 1013.2 |
| 20260504191531 | 22 | 276 | 1.6 | 12.9 | 0.00 | 0.00 | 0.00 | 51 | 1013.4 |
| 20260504190107 | 22 | 268 | 1.6 | 14.5 | 0.00 | 0.00 | 0.00 | 52 | 1013.4 |
| 20260504184532 | 22 | 269 | 0.0 | 11.3 | 0.00 | 0.00 | 0.00 | 53 | 1013.5 |
| 20260504183031 | 22 | 271 | 1.6 | 6.4 | 0.00 | 0.00 | 0.00 | 53 | 1013.6 |
| 20260504180030 | 21 | 259 | 0.0 | 8.0 | 0.00 | 0.00 | 0.00 | 54 | 1014.0 |
| 20260504174530 | 22 | 252 | 1.6 | 19.3 | 0.00 | 0.00 | 0.00 | 54 | 1014.0 |
| 20260504173144 | 21 | 251 | 0.0 | 8.0 | 0.00 | 0.00 | 0.00 | 56 | 1014.0 |
| 20260504171529 | 20 | 249 | 0.0 | 6.4 | 0.00 | 0.00 | 0.00 | 57 | 1014.1 |
| 20260504170108 | 20 | 259 | 0.0 | 8.0 | 0.00 | 0.00 | 0.00 | 57 | 1014.1 |